Fairfield, CA

10:09 AM PDT on October 20, 2017 (GMT -0700)
Travis Air Force Base

Weather History for KSUU - November, 2013

Change the Weather History Date:

Wednesday, November 20, 2013

  Actual Average Record
Temperature  
Mean Temperature 56 °F -  
Max Temperature 59 °F 60 °F 75 °F (2015)
Min Temperature 52 °F 42 °F 32 °F (2000)
Degree Days  
Heating Degree Days 10    
Growing Degree Days 6 (Base 50)    
Moisture  
Dew Point 56 °F    
Average Humidity 100    
Maximum Humidity 100    
Minimum Humidity 94    
Precipitation  
Precipitation 0.26 in - - ()
Sea Level Pressure  
Sea Level Pressure 29.89 in    
Wind  
Wind Speed 9 mph (South)    
Max Wind Speed 15 mph    
Max Gust Speed 17 mph    
Visibility 8 miles    
Events Rain    
Averages and records for this station are not official NWS values.
T = Trace of Precipitation, MM = Missing Value Source: NWS Daily Summary

Daily Weather History Graph

Daily Weather History Graph

Search for Another Location

Airport or City:

Trip Planner

Search our weather history database for the weather conditions in past years. The results will help you decide how hot, cold, wet, or windy it might be!

Date:

Astronomy

Nov. 20, 2013 Rise Set
Actual Time 6:54 AM PST 4:51 PM PST
Civil Twilight 6:26 AM PST 5:20 PM PST
Nautical Twilight 5:53 AM PST 5:52 PM PST
Astronomical Twilight 5:22 AM PST 6:24 PM PST
Moon 7:39 PM PST 9:23 AM PST
Length of Visible Light 10h 54m
Length of Day
9h 57m
Waning Gibbous, 91% of the Moon is Illuminated
Nov 20
Waning Gibbous
Nov 25
Last Quarter
Dec 2
New
Dec 9
First Quarter
Dec 17
Full

Hourly Weather History & Observations

Time (PST) Temp. Dew Point Humidity Pressure Visibility Wind Dir Wind Speed Gust Speed Precip Events Conditions
12:05 AM 55.4 °F 55.4 °F 100% 29.94 in 4.0 mi SE 10.4 mph - N/A Rain Light Rain
12:20 AM 55.4 °F 55.4 °F 100% 29.93 in 7.0 mi SE 9.2 mph - N/A   Overcast
12:58 AM 55.4 °F 55.4 °F 100% 29.95 in 10.0 mi SE 9.2 mph - 0.01 in   Overcast
1:50 AM 55.4 °F 55.4 °F 100% 29.91 in 10.0 mi SE 10.4 mph - N/A Rain Light Rain
1:54 AM 55.4 °F 55.4 °F 100% 29.91 in 8.0 mi SE 10.4 mph - N/A Rain Light Rain
1:58 AM 55.2 °F 55.2 °F 100% 29.93 in 7.0 mi SE 8.1 mph - 0.01 in Rain Light Rain
2:23 AM 55.4 °F 55.4 °F 100% 29.91 in 10.0 mi SE 10.4 mph - N/A   Overcast
2:58 AM 55.2 °F 55.2 °F 100% 29.93 in 10.0 mi SE 9.2 mph - 0.02 in   Overcast
3:28 AM 55.4 °F 55.4 °F 100% 29.90 in 7.0 mi SE 8.1 mph - N/A Rain Light Rain
3:58 AM 55.0 °F 55.0 °F 100% 29.91 in 7.0 mi SE 9.2 mph - 0.02 in Rain Light Rain
4:22 AM 55.4 °F 55.4 °F 100% 29.89 in 5.0 mi SE 10.4 mph - N/A   Overcast
4:32 AM 55.4 °F 55.4 °F 100% 29.89 in 6.0 mi SE 8.1 mph - N/A   Mostly Cloudy
4:39 AM 55.4 °F 55.4 °F 100% 29.89 in 6.0 mi SE 8.1 mph - N/A   Mostly Cloudy
4:44 AM 55.4 °F 55.4 °F 100% 29.89 in 7.0 mi SE 8.1 mph - N/A   Mostly Cloudy
4:49 AM 55.4 °F 55.4 °F 100% 29.89 in 7.0 mi SE 9.2 mph - N/A   Overcast
4:56 AM 55.4 °F 55.4 °F 100% 29.89 in 8.0 mi SE 9.2 mph - N/A Rain Light Rain
4:58 AM 55.4 °F 55.4 °F 100% 29.91 in 9.0 mi SE 9.2 mph - 0.01 in   Light Drizzle
5:09 AM 55.4 °F 55.4 °F 100% 29.88 in 7.0 mi SSE 12.7 mph - N/A Rain Light Rain
5:35 AM 55.4 °F 55.4 °F 100% 29.89 in 10.0 mi SSE 9.2 mph - N/A   Mostly Cloudy
5:50 AM 55.4 °F 55.4 °F 100% 29.89 in 10.0 mi SE 9.2 mph - N/A   Light Drizzle
5:53 AM 55.4 °F 55.4 °F 100% 29.89 in 9.0 mi SE 9.2 mph - N/A Rain Light Rain
5:58 AM 55.4 °F 55.4 °F 100% 29.91 in 9.0 mi SE 9.2 mph - 0.03 in Rain Light Rain
6:03 AM 55.4 °F 55.4 °F 100% 29.89 in 9.0 mi SSE 9.2 mph - N/A Rain Light Rain
6:25 AM 55.4 °F 55.4 °F 100% 29.89 in 10.0 mi SSE 8.1 mph - N/A   Overcast
6:30 AM 55.4 °F 55.4 °F 100% 29.89 in 10.0 mi SSE 6.9 mph - N/A   Overcast
6:35 AM 55.4 °F 55.4 °F 100% 29.89 in 10.0 mi SSE 6.9 mph - N/A   Overcast
6:40 AM 55.4 °F 55.4 °F 100% 29.89 in 10.0 mi SSE 6.9 mph - N/A   Overcast
6:45 AM 55.4 °F 55.4 °F 100% 29.89 in 9.0 mi SSE 6.9 mph - N/A   Overcast
6:50 AM 55.4 °F 55.4 °F 100% 29.89 in 6.0 mi SSE 6.9 mph - N/A   Overcast
6:55 AM 55.4 °F 55.4 °F 100% 29.89 in 5.0 mi SE 6.9 mph - N/A   Overcast
6:58 AM 55.4 °F 55.4 °F 100% 29.91 in 4.0 mi SE 9.2 mph - 0.00 in   Overcast
7:08 AM 55.4 °F 55.4 °F 100% 29.89 in 3.0 mi SSE 8.1 mph - N/A   Overcast
7:13 AM 55.4 °F 55.4 °F 100% 29.89 in 2.5 mi SSE 8.1 mph - N/A   Overcast
7:18 AM 55.4 °F 55.4 °F 100% 29.90 in 2.0 mi SSE 8.1 mph - N/A   Overcast
7:23 AM 55.4 °F 55.4 °F 100% 29.90 in 2.5 mi SSE 6.9 mph - N/A   Overcast
7:33 AM 55.4 °F 55.4 °F 100% 29.90 in 2.0 mi SSE 6.9 mph - N/A   Overcast
7:48 AM 55.4 °F 55.4 °F 100% 29.90 in 2.5 mi SSE 9.2 mph - N/A   Overcast
7:58 AM 55.2 °F 55.2 °F 100% 29.92 in 2.5 mi SSE 8.1 mph - 0.01 in   Overcast
8:03 AM 55.4 °F 55.4 °F 100% 29.90 in 2.0 mi SSE 8.1 mph - N/A   Overcast
8:16 AM 55.4 °F 55.4 °F 100% 29.91 in 1.8 mi SSE 5.8 mph - N/A   Light Drizzle
8:21 AM 55.4 °F 55.4 °F 100% 29.91 in 1.5 mi SSE 5.8 mph - N/A   Light Drizzle
8:26 AM 55.4 °F 55.4 °F 100% 29.90 in 2.0 mi SE 5.8 mph - N/A   Overcast
8:31 AM 55.4 °F 55.4 °F 100% 29.90 in 3.0 mi SE 6.9 mph - N/A   Overcast
8:58 AM 56.7 °F 56.7 °F 100% 29.92 in 5.0 mi South 6.9 mph - 0.00 in   Overcast
9:18 AM 57.2 °F 57.2 °F 100% 29.90 in 6.0 mi SE 8.1 mph - N/A   Overcast
9:23 AM 57.2 °F 57.2 °F 100% 29.91 in 9.0 mi SE 9.2 mph - N/A   Overcast
9:33 AM 57.2 °F 57.2 °F 100% 29.91 in 10.0 mi SE 8.1 mph - N/A   Overcast
9:58 AM 56.8 °F 56.8 °F 100% 29.93 in 10.0 mi SE 10.4 mph - N/A   Mostly Cloudy
10:03 AM 57.2 °F 57.2 °F 100% 29.91 in 10.0 mi SE 8.1 mph - N/A   Scattered Clouds
10:13 AM 57.2 °F 57.2 °F 100% 29.91 in 10.0 mi SE 9.2 mph - N/A   Mostly Cloudy
10:33 AM 57.2 °F 57.2 °F 100% 29.90 in 10.0 mi SE 8.1 mph - N/A   Mostly Cloudy
10:58 AM 57.2 °F 57.2 °F 100% 29.91 in 10.0 mi SSE 6.9 mph - N/A   Overcast
11:41 AM 57.2 °F 57.2 °F 100% 29.88 in 6.0 mi South 5.8 mph - N/A   Light Drizzle
11:51 AM 57.2 °F 57.2 °F 100% 29.88 in 4.0 mi Variable 5.8 mph - N/A   Overcast
11:58 AM 57.9 °F 57.9 °F 100% 29.90 in 8.0 mi South 5.8 mph - 0.00 in   Overcast
12:13 PM 59.0 °F 59.0 °F 100% 29.86 in 10.0 mi SW 8.1 mph - N/A   Scattered Clouds
12:18 PM 59.0 °F 59.0 °F 100% 29.86 in 10.0 mi SW 6.9 mph - N/A   Scattered Clouds
12:33 PM 59.0 °F 59.0 °F 100% 29.86 in 10.0 mi SW 8.1 mph - N/A   Mostly Cloudy
12:41 PM 59.0 °F 59.0 °F 100% 29.86 in 10.0 mi SSW 9.2 mph - N/A Rain Light Rain
12:58 PM 58.6 °F 58.6 °F 100% 29.87 in 10.0 mi SSW 9.2 mph - 0.00 in Rain Light Rain
1:00 PM 59.0 °F 59.0 °F 100% 29.85 in 10.0 mi South 9.2 mph - N/A Rain Light Rain
1:10 PM 57.2 °F 57.2 °F 100% 29.85 in 4.0 mi South 5.8 mph - N/A Rain Heavy Rain
1:15 PM 57.2 °F 57.2 °F 100% 29.85 in 4.0 mi South 6.9 mph - N/A Rain Rain
1:35 PM 57.2 °F 57.2 °F 100% 29.85 in 10.0 mi SSW 10.4 mph - N/A Rain Light Rain
1:52 PM 57.2 °F 57.2 °F 100% 29.85 in 10.0 mi SSW 12.7 mph - N/A   Scattered Clouds
1:58 PM 57.4 °F 57.4 °F 100% 29.86 in 10.0 mi SSW 13.8 mph - 0.09 in   Scattered Clouds
2:08 PM 57.2 °F 57.2 °F 100% 29.84 in 10.0 mi SW 10.4 mph - N/A   Mostly Cloudy
2:10 PM 57.2 °F 57.2 °F 100% 29.84 in 10.0 mi SW 10.4 mph - N/A Rain Light Rain
2:30 PM 57.2 °F 57.2 °F 100% 29.82 in 8.0 mi South 8.1 mph - N/A Rain Rain
2:50 PM 57.2 °F 57.2 °F 100% 29.83 in 10.0 mi SSW 12.7 mph - N/A Rain Light Rain
2:59 PM 57.2 °F 57.2 °F 100% 29.85 in 10.0 mi SSW 12.7 mph - 0.05 in   Overcast
3:03 PM 57.2 °F 57.2 °F 100% 29.83 in 10.0 mi SSW 15.0 mph - N/A   Overcast
3:58 PM 58.6 °F 58.3 °F 99% 29.85 in 10.0 mi SW 11.5 mph - N/A   Partly Cloudy
4:59 PM 58.1 °F 58.1 °F 100% 29.86 in 10.0 mi SSW 6.9 mph - N/A   Scattered Clouds
5:58 PM 57.2 °F 57.2 °F 100% 29.86 in 10.0 mi SSW 10.4 mph - N/A   Mostly Cloudy
6:58 PM 54.9 °F 54.9 °F 100% 29.87 in 10.0 mi SW 12.7 mph - N/A   Partly Cloudy
7:58 PM 52.9 °F 52.9 °F 100% 29.87 in 10.0 mi SW 13.8 mph - N/A   Partly Cloudy
8:58 PM 52.5 °F 52.5 °F 100% 29.89 in 10.0 mi WSW 11.5 mph - N/A   Partly Cloudy
9:48 PM 53.6 °F 51.8 °F 94% 29.87 in 10.0 mi WSW 9.2 mph - N/A   Mostly Cloudy
9:58 PM 53.1 °F 52.9 °F 99% 29.89 in 10.0 mi WSW 6.9 mph - N/A   Mostly Cloudy
10:58 PM 52.9 °F 52.9 °F 100% 29.89 in 10.0 mi SW 6.9 mph - N/A   Mostly Cloudy
11:03 PM 53.6 °F 53.6 °F 100% 29.87 in 10.0 mi SW 5.8 mph - N/A   Scattered Clouds
11:06 PM 53.6 °F 53.6 °F 100% 29.87 in 10.0 mi WSW 5.8 mph - N/A Rain Light Rain
11:11 PM 53.6 °F 53.6 °F 100% 29.88 in 10.0 mi WSW 5.8 mph - N/A Rain Light Rain
11:16 PM 53.6 °F 53.6 °F 100% 29.88 in 10.0 mi WSW 6.9 mph - N/A Rain Light Rain
11:23 PM 53.6 °F 53.6 °F 100% 29.88 in 10.0 mi WSW 5.8 mph - N/A   Mostly Cloudy
11:33 PM 53.6 °F 53.6 °F 100% 29.88 in 10.0 mi Variable 5.8 mph - N/A   Mostly Cloudy
11:38 PM 53.6 °F 53.6 °F 100% 29.88 in 10.0 mi WNW 8.1 mph - N/A   Overcast
11:44 PM 53.6 °F 53.6 °F 100% 29.88 in 10.0 mi NNW 8.1 mph - N/A   Light Drizzle
11:54 PM 55.4 °F 53.6 °F 94% 29.88 in 10.0 mi NNW 12.7 mph 17.3 mph N/A Rain Light Rain
11:58 PM 54.5 °F 54.3 °F 99% 29.90 in 10.0 mi NNW 13.8 mph - 0.01 in Rain Light Rain